User: anonymous   Login
Location: Unspecified
(0.0000°N, 0.0000°E)
Time: 03:33:15
(UTC+00:00)
Language:

CHUBUSAT 3 - Orbit

View from above orbital plane
View from above orbital plane
View from above satellite
View from above satellite

Ground track
Ground track

The orbit data is extracted from the following two-line orbital elements,

1 41339U 16012C   17112.38040554 +.00000853 +00000-0 +60235-4 0  9997
2 41339 031.0105 105.9146 0014179 232.7431 127.1906 14.99911301064589
Epoch (UTC): 22 April 2017 09:07:47
Eccentricity: 0.0014179
inclination: 31.0105°
perigee height: 557 km
apogee height: 577 km
right ascension of ascending node: 105.9146°
argument of perigee: 232.7431°
revolutions per day: 14.99911301
mean anomaly at epoch: 127.1906°
orbit number at epoch: 6458

The dashed part of the orbit path shows where the satellite is in the earth's shadow,  

DLR